Location: Hope
(40.9110°N, 74.9680°W)
Time: 03:59:37
(UTC-05:00)

Hubble Space Telescope - Visible Passes

Search period start: 18 February 2018 00:00
Search period end: 28 February 2018 00:00
Orbit: 537 x 541 km, 28.5° (Epoch: 17 February)

Date Brightness Start Highest point End Pass type
(mag) Time Alt. Az. Time Alt. Az. Time Alt. Az.
19 Feb 3.5 05:55:02 10° S 05:56:05 11° SSE 05:57:09 10° SSE visible
20 Feb 3.3 05:44:03 10° SSW 05:45:40 12° S 05:47:19 10° SSE visible
21 Feb 3.2 05:33:19 10° SSW 05:35:16 13° S 05:37:14 10° SE visible
22 Feb 3.2 05:22:43 10° SSW 05:24:52 14° S 05:27:01 10° SE visible
23 Feb 3.0 05:12:57 12° SSW 05:14:28 14° S 05:16:43 10° SE visible
24 Feb 2.9 05:03:15 14° SSW 05:04:04 14° S 05:06:21 10° SE visible
25 Feb 3.0 04:53:33 14° S 04:53:40 14° S 04:55:55 10° SSE visible
26 Feb 3.1 04:43:51 14° S 04:43:51 14° S 04:45:25 10° SSE visible
27 Feb 3.3 04:34:10 12° SSE 04:34:10 12° SSE 04:34:50 10° SSE visible
